Content
SEND FEEDBACK

Daily
Averages
Monthly
Summary
United States of America

UMATAC, GUAM


Home > North America > United States > Guam
Elevation: 190 feet     Latitude: 13 17N     Longitude: 144 40E

WEATHER
 
SELECT A DAY
Number of Records: 341,964;   Date Range: 1/1/95 - 7/26/14
 
SHARE

PRINT THIS DATA

[ ← Previous Day ]
WEATHER ALMANAC - SEPTEMBER 6, 2013
[ Next Day → ]
[ °C ]   °F
Weather ElementAverageHighLow
Temperature81.3 °F86.5 °F (12:55 pm)75 °F (3:58 am)
Dewpoint75.9 °F78.8 °F (9:58 am)71.6 °F (3:50 am)
Humidity83.9 %94 % (3:30 am)74 % (2:03 pm)
Barometer29.82 in29.87 in (10:28 pm)29.74 in (2:55 pm)
Wind Speed10.3 mph24.2 mph (3:25 am)
Wind Gust33.4 mph (3:25 am)
Weather ElementAverage
Visibility8.3 mi
Wind DirectionE (87.7 °)

Weather ElementTotal
Precipitation0.56 in
Cooling Degree Days15.8 (Base 65)
Growing Degree Days30.8 (Base 50)
Averaged from 62 records on September 6, 2013
WEATHER CONDITIONS BREAKOUT
WIND DIRECTION BREAKOUT
WEATHER BY HOUR - SEPTEMBER 6, 2013
[ °C ]   °F
Local TimeTemperatureDewpointHumidityBarometerVisibilityWind DirectionWind SpeedGust SpeedPrecipitationEventsConditions
1:58 AM80.1 °F75.7 °F87 %29.82 in10.0 miENE (60°)9.2 mphScattered Clouds
2:18 AM80.6 °F75.2 °F84 %29.82 in10.0 miENE (60°)10.4 mphMostly Cloudy
2:38 AM80.6 °F75.2 °F84 %29.81 in10.0 miENE (60°)9.2 mphScattered Clouds
2:58 AM80.1 °F75.9 °F87 %29.77 in10.0 miENE (60°)10.4 mphPartly Cloudy
3:16 AM80.6 °F77.0 °F89 %29.82 in10.0 miENE (60°)19.6 mph21.9 mphRainLight Rain
3:20 AM78.8 °F75.2 °F89 %29.83 in2.5 miESE (110°)17.3 mph29.9 mphRainLight Rain
3:25 AM77.0 °F73.4 °F89 %29.84 in1.2 miEast (80°)24.2 mph33.4 mphRainHeavy Rain
3:30 AM75.2 °F73.4 °F94 %29.83 in0.8 miENE (60°)20.7 mph33.4 mphRain-ThunderstormHeavy Thunderstorms and Rain
3:35 AM75.2 °F73.4 °F94 %29.83 in0.8 miENE (70°)9.2 mph33.4 mphRain-ThunderstormHeavy Thunderstorms and Rain
3:41 AM75.2 °F73.4 °F94 %29.83 in2.0 miEast (90°)2.3 mphRain-ThunderstormHeavy Thunderstorms and Rain
3:50 AM75.2 °F71.6 °F89 %29.82 in5.0 miCalmRainLight Rain
3:58 AM75.0 °F72.0 °F90 %29.82 in6.0 miCalm0.55 inRainRain
3:59 AM75.2 °F71.6 °F89 %29.82 in6.0 miCalmRain-ThunderstormThunderstorms and Rain
4:14 AM75.2 °F71.6 °F89 %29.82 in10.0 miSouth (190°)2.3 mphScattered Clouds
4:26 AM75.2 °F71.6 °F89 %29.81 in10.0 miESE (120°)3.5 mphRainLight Rain
4:35 AM75.2 °F71.6 °F89 %29.81 in10.0 miENE (60°)8.1 mphRainLight Rain
4:41 AM77.0 °F73.4 °F89 %29.81 in10.0 miENE (60°)12.7 mphPartly Cloudy
4:58 AM76.8 °F72.7 °F87 %29.81 in10.0 miNNE (30°)12.7 mph0.01 inThunderstormClear
5:58 AM76.6 °F73.2 °F89 %29.80 in10.0 miNE (40°)5.8 mphPartly Cloudy
9:58 AM84.2 °F78.8 °F84 %29.85 in7.0 miNE (40°)9.2 mphScattered Clouds
10:10 AM84.2 °F78.8 °F84 %29.85 in7.0 miNE (40°)12.7 mphMostly Cloudy
10:29 AM82.4 °F78.8 °F89 %29.85 in4.0 miENE (60°)10.4 mphRainLight Rain
10:33 AM80.6 °F78.8 °F94 %29.81 in1.0 miEast (90°)18.4 mphRainHeavy Rain
10:47 AM78.8 °F77.0 °F94 %29.85 in2.5 miEast (80°)9.2 mphRainLight Rain
10:49 AM78.8 °F75.2 °F89 %29.85 in6.0 miEast (80°)8.1 mphScattered Clouds
10:58 AM80.6 °F77.0 °F89 %29.84 in7.0 miENE (60°)10.4 mphScattered Clouds
11:58 AM84.2 °F78.8 °F84 %29.83 in7.0 miENE (70°)9.2 mphScattered Clouds
12:14 PM84.2 °F78.8 °F84 %29.83 in7.0 miEast (90°)10.4 mphMostly Cloudy
12:55 PM86.5 °F78.3 °F76 %29.76 in7.0 miESE (110°)10.4 mphScattered Clouds
1:47 PM86.0 °F78.8 °F79 %29.75 in7.0 miEast (90°)13.8 mphMostly Cloudy
1:48 PM86.0 °F78.8 °F79 %29.79 in10.0 miEast (90°)11.5 mphMostly Cloudy
1:53 PM86.0 °F78.8 °F79 %29.79 in10.0 miEast (90°)13.8 mphMostly Cloudy
1:58 PM85.5 °F78.4 °F79 %29.79 in10.0 miESE (120°)16.1 mphMostly Cloudy
2:03 PM86.0 °F77.0 °F74 %29.79 in10.0 miESE (110°)13.8 mphScattered Clouds
2:08 PM86.0 °F77.0 °F74 %29.79 in10.0 miESE (110°)12.7 mphScattered Clouds
2:55 PM86.0 °F78.1 °F77 %29.74 in7.0 miESE (110°)12.7 mphScattered Clouds
2:58 PM86.0 °F78.1 °F77 %29.79 in10.0 miESE (120°)12.7 mphPartly Cloudy
3:12 PM86.0 °F77.0 °F74 %29.79 in10.0 miSE (130°)12.7 mphScattered Clouds
3:58 PM84.4 °F77.9 °F81 %29.79 in10.0 miESE (120°)11.5 mphScattered Clouds
4:13 PM84.2 °F77.0 °F79 %29.80 in10.0 miESE (120°)9.2 mphMostly Cloudy
4:23 PM84.2 °F77.0 °F79 %29.80 in10.0 miESE (110°)9.2 mphScattered Clouds
4:58 PM83.7 °F76.5 °F79 %29.80 in10.0 miEast (100°)10.4 mphScattered Clouds
5:58 PM82.6 °F75.6 °F79 %29.81 in10.0 miEast (100°)9.2 mphScattered Clouds
6:43 PM82.4 °F77.0 °F84 %29.83 in10.0 miESE (110°)8.1 mphMostly Cloudy
6:53 PM82.4 °F77.0 °F84 %29.83 in10.0 miEast (100°)8.1 mphScattered Clouds
6:58 PM81.9 °F76.6 °F84 %29.83 in10.0 miESE (110°)8.1 mphScattered Clouds
7:08 PM82.4 °F77.0 °F84 %29.83 in10.0 miEast (100°)9.2 mphMostly Cloudy
7:18 PM82.4 °F77.0 °F84 %29.84 in10.0 miEast (100°)9.2 mphScattered Clouds
7:48 PM82.4 °F77.0 °F84 %29.85 in10.0 miEast (100°)10.4 mphScattered Clouds
7:58 PM81.9 °F76.3 °F83 %29.85 in10.0 miEast (100°)10.4 mphScattered Clouds
8:58 PM81.5 °F76.5 °F85 %29.85 in10.0 miEast (100°)11.5 mphPartly Cloudy
9:58 PM81.7 °F76.1 °F83 %29.86 in10.0 miEast (100°)9.2 mphPartly Cloudy
10:28 PM82.4 °F75.2 °F79 %29.87 in10.0 miEast (90°)10.4 mphMostly Cloudy
10:38 PM82.4 °F75.2 °F79 %29.87 in10.0 miEast (100°)10.4 mphScattered Clouds
10:53 PM82.4 °F75.2 °F79 %29.87 in10.0 miEast (100°)8.1 mphScattered Clouds
10:58 PM81.5 °F75.9 °F83 %29.87 in10.0 miESE (110°)8.1 mphScattered Clouds
11:08 PM82.4 °F75.2 °F79 %29.86 in10.0 miESE (110°)9.2 mphScattered Clouds
11:18 PM82.4 °F75.2 °F79 %29.86 in10.0 miESE (110°)9.2 mphMostly Cloudy
11:38 PM82.4 °F75.2 °F79 %29.86 in10.0 miESE (120°)9.2 mphMostly Cloudy
11:43 PM82.4 °F75.2 °F79 %29.86 in10.0 miESE (110°)10.4 mphMostly Cloudy
11:53 PM82.4 °F75.2 °F79 %29.85 in10.0 miESE (110°)12.7 mphScattered Clouds
11:58 PM81.5 °F75.7 °F83 %29.85 in10.0 miESE (110°)11.5 mphScattered Clouds
Hourly data recorded from PGUA, located miles away from Umatac, Guam







STORIES FROM OUR PARTNERS